TIANTONG-1 2

Last updated on Thu Nov 21 2024 00:02:44 GMT+0000 (Coordinated Universal Time)

1 46916U 20082A 24325.57046406 -.00000355 00000+0 00000+0 0 9998 2 46916 1.9745 295.0368 0004284 335.1829 120.1384 1.00274369 14901
UTC large
Height (km)
Speed (km/s)
/
Latitude / Longitude
Inclination (degrees)
Orbital Period (minutes)
Azimuth
Elevation
Range (km)
Doppler Factor

Next 0 passes for location: London (51.5072 / 0.1276)

Sorry there are no passes over London.